Regional Weather Roundup
Issued by NWS Upton, NY

Home | Current Version | Previous Version | Text Only | Print | Product List | Glossary On
Versions: 1 2 3 4 5 6 7 8 9 10 11 12 13 14 15 16 17 18 19 20 21 22 23 24 25 26 27 28 29 30 31 32 33 34 35 36 37 38 39 40 41 42 43 44 45 46 47 48 49 50
000
ASUS41 KOKX 241005
RWROKX

Regional Weather Roundup
National Weather Service New York NY
600 AM EDT THU MAY 24 2018

Note: "FAIR" indicates few or no clouds below 12,000 feet with no
significant weather and/or obstructions to visibility.

NYZ071-072-176-178-NJZ106-104-241100-
New York City Metro Area

CITY           SKY/WX    TMP DP  RH WIND       PRES   REMARKS
Central Park   FAIR      64  52  64 W6        30.10R
Bronx Bot Gard   N/A     63  50  63 W1        30.10R
Bronx Lehman C   N/A     64  52  63 N5          N/A
LaGuardia Arpt FAIR      66  52  60 NW10      30.07R
Queens College   N/A     66  52  59 NW5         N/A
Kennedy Intl   FAIR      65  53  65 N12       30.07R
Breezy Point     N/A     63 N/A N/A NW5         N/A
Brooklyn Coll    N/A     66  52  59 NW5         N/A
Staten Island    N/A     63  52  67 NW2         N/A
Newark/Liberty FAIR      66  51  58 NW9       30.07R
Teterboro      FAIR      64  52  64 CALM      30.06R
$$

NYZ177-179-078>081-241100-
Long Island New York

CITY           SKY/WX    TMP DP  RH WIND       PRES   REMARKS
Jones Beach      N/A     64 N/A N/A NW9         N/A
Wantagh          N/A     63  52  67 NW6         N/A
Hempstead        N/A     64  54  68 NW2       30.09
Matinecock Pt    N/A     64 N/A N/A NW3         N/A
Farmingdale    FAIR      60  51  72 W5        30.06R
MacArthur/ISP  FAIR      60  52  74 NW7       30.05R
Stony Brook      N/A     61  52  72 NW2         N/A
Shirley        FAIR      61  53  75 N7        30.05R
Mt Sinai Harb    N/A    N/A N/A N/A NW5         N/A
Westhampton    FAIR      50  46  86 NW6       30.06R
East Hampton   FAIR      52  50  93 NW5       30.04R
Southold         N/A     61  50  67 N8          N/A
Montauk          N/A     57  51  80 NE5       30.05R
$$

NYZ052-065-067-241100-
Hudson Valley

CITY           SKY/WX    TMP DP  RH WIND       PRES   REMARKS
White Plains   FAIR      58  50  75 NW9       30.07R
Larchmont Harb   N/A     64 N/A N/A NW5         N/A
Croton On Huds   N/A     57 N/A N/A MISG        N/A
Somers           N/A     59  50  72 NW1         N/A
Brewster         N/A     57  48  72 N6          N/A
Newburgh       CLEAR     54  52  94 CALM      30.10R
Montgomery     FAIR      53  50  89 S3        30.09R
Otisville        N/A     52  52 100 S2          N/A
Warwick          N/A     52  52 100 W1          N/A
Suffern          N/A     59  52  77 S2          N/A
Poughkeepsie   FAIR      50  48  93 CALM      30.08R
Albany         FAIR      53  47  79 CALM      30.11R
$$

NJZ001-105-106-008-010-013-015-019>022-104-241100-
New Jersey

CITY           SKY/WX    TMP DP  RH WIND       PRES   REMARKS
Newark/Liberty FAIR      66  51  58 NW9       30.07R
Teterboro      FAIR      64  52  64 CALM      30.06R
Caldwell       FAIR      55  53  93 S5        30.09R
Somerville     FAIR      51  51 100 NW3       30.08R
Linden         FAIR      63  50  63 CALM      30.08R
Perth Amboy      N/A     63 N/A N/A W7          N/A
Sussex         FAIR      48  48 100 CALM      30.12R
Andover          N/A     51  51 100 CALM      30.13R
Trenton        FAIR      60  51  72 NW5       30.09R
Millville      FAIR      59  54  83 NW5       30.09R
Atlantic City  FAIR      58  54  86 CALM      30.09R
Wrightstown    NOT AVBL
Toms River     FAIR      55  51  86 NW3       30.09R
Belmar         FAIR      59  52  77 NW5       30.09R
$$

PAZ047>061-062-071-241100-
Eastern Pennsylvania

CITY           SKY/WX    TMP DP  RH WIND       PRES   REMARKS
Philadelphia   FAIR      64  53  67 NW7       30.11
Allentown      FAIR      54  50  86 CALM      30.13R
Scranton       FAIR      54  50  86 CALM      30.17R
$$

CTZ002-004>006-009-010-012-RIZ004-006-007-MAZ004-011-015-241100-
Southern New England

 In CT

CITY           SKY/WX    TMP DP  RH WIND       PRES   REMARKS
Bradley Intl   FAIR      55  51  86 NE7       30.06R
Hartford       FAIR      54  52  93 CALM      30.06R
Danbury        FAIR      50  48  93 SW3       30.09R
Wtrbury/Oxford FAIR      56  49  77 N6        30.08R
Norwalk Harbor   N/A     59 N/A N/A W7          N/A
Bridgeport     FAIR      62  50  64 CALM      30.05R
Meriden        FAIR      62  50  64 NW8       30.05R
New Haven      FAIR      64  51  62 NW3       30.05R
Chester        FAIR      61  52  72 NW7       30.05R
Groton         FAIR      54  51  90 N6        30.03R
Willimantic    FAIR      52  50  93 CALM      30.05R

 In RI

CITY           SKY/WX    TMP DP  RH WIND       PRES   REMARKS
Providence     FAIR      56  53  90 NW6       30.05R
Block Island   FAIR      56  55  97 N7        30.04R
Westerly       FAIR      56  53  90 N5        30.04R

In MA

CITY           SKY/WX    TMP DP  RH WIND       PRES   REMARKS
Boston         FAIR      55  52  89 N8        30.05R
Worcester      FAIR      51  49  92 W5        30.06R
Westfield      FAIR      58  52  80 N7        30.06R
Provincetown   FAIR      48  46  93 NE6       30.05R
Nantucket      CLOUDY    52  52 100 E9        30.02R FOG
$$

ANZ330-335-338-340-345-350-353-355-241100-
Coastal Marine Observations


STATION/POSITION TIME  SKY/WX   TEMP    WIND        PRES    VSBY  WAVE
                                AIR SEA DIR/SP/G                  HT/PER
                 (UTC)          (F)     (DEG/KT/KT) (MB)    (MI)  (FT/S)
NY Harb Entrance 0950            62 58  300/  8/ 10 1017.9          2/ 8
20 S Fire Island 0950            61 55  320/ 10/ 10 1017.3          2/ 7
23 SSW Montauk P 0950            58 55  320/  6/  8 1016.9          2/ 7
15 E Barnegat Li 0930               60                N/A           3/ 6
Hudson Canyon    0950            58 53  330/ 12/ 12 1016.5          3/ 6
Kings Point      0948               58                N/A
Execution Rocks  NOT AVBL
Western LI Sound NOT AVBL
Central LI Sound 0945            58     350/  6/  8   N/A           0
Robbins Reef     0948            67     330/  5/  8 1018.8
$$


>>>>>>>>>>>>>>>>>>>>>>>>>>>> KEY <<<<<<<<<<<<<<<<<<<<<<<<<<<
>                                                          <
>     SKY/WX - Sky Condition/Present Weather               <
>     TMP    - Temperature in Fahrenheit                   <
>     DP     - Dew Point in Fahrenheit                     <
>     RH     - Relative Humidity in Percent                <
>     WIND   - Direction (from) and Speed in MPH           <
>     PRES   - Mean Sea Level Pressure (inches of Hg)      <
>     WCI    - Wind Chill Index                            <
>     VSB    - Visibility in Miles                         <
>     HX     - Heat Index                                  <
>     TC     - Temperature in Celsius                      <
>     VRB    - Varibale Wind Direction                     <
>                                                          <
>>>>>>>>>>>>>>>>>>>>>>>>>>>> KEY <<<<<<<<<<<<<<<<<<<<<<<<<<<



USA.gov is the U.S. government's official web portal to all federal, state and local government web resources and services.